This demonstration page uses our WeatherBlox Daily Observations layout. Learn more.

Left ArrowRight Arrow

39.29038, -76.61219

Hourly Observations for June 19, 2019

Temp ( °F °C ) Dew Point ( °F °C ) Humidity (%) Winds ( mph kmh ) Pressure ( in mb ) Visibility ( mi km ) Precip ( " mm )
12:54 am 00:54 undefined 73 22.8 70 21.1 90 90 undefined N/A 29.88 1012 N/A 0.06 1.52
1:54 am 01:54 undefined 73 22.8 70 21.1 90 90 undefined N/A 29.89 1012 N/A 0.00 0.00
2:54 am 02:54 undefined 73 22.8 69 20.6 87 87 undefined N/A 29.88 1012 N/A 0.00 0.00
3:54 am 03:54 undefined 73 22.8 70 21.1 90 90 undefined N/A 29.85 1011 N/A 0.00 0.00
4:54 am 04:54 undefined 73 22.8 70 21.1 90 90 undefined N/A 29.84 1011 N/A 0.00 0.00
5:54 am 05:54 undefined 73 22.8 69 20.6 87 87 undefined N/A 29.84 1010 N/A 0.00 0.00
6:54 am 06:54 undefined 73 22.8 69 20.6 87 87 undefined N/A 29.83 1010 N/A 0.00 0.00
7:54 am 07:54 undefined 74 23.3 70 21.1 88 88 undefined N/A 29.84 1010 N/A 0.00 0.00
8:54 am 08:54 undefined 74 23.3 69 20.6 85 85 undefined N/A 29.85 1011 N/A 0.00 0.00
9:54 am 09:54 undefined 76 24.4 69 20.6 79 79 undefined N/A 29.85 1011 N/A 0.00 0.00
10:54 am 10:54 undefined 77 25 69 20.6 77 77 undefined N/A 29.84 1011 N/A 0.00 0.00
11:54 am 11:54 undefined 80 26.7 70 21.1 71 71 undefined N/A 29.83 1010 N/A 0.00 0.00
12:54 pm 12:54 undefined 84 28.9 71 21.7 65 65 undefined N/A 29.83 1010 N/A 0.00 0.00
1:54 pm 13:54 undefined 81 27.2 71 21.7 72 72 undefined N/A 29.78 1008 N/A 0.00 0.00
2:54 pm 14:54 undefined 83 28.3 72 22.2 70 70 undefined N/A 29.76 1008 N/A 0.00 0.00
3:54 pm 15:54 undefined 83 28.3 71 21.7 67 67 undefined N/A 29.72 1007 N/A 0.00 0.00
4:54 pm 16:54 undefined 83 28.3 72 22.2 70 70 undefined N/A 29.70 1006 N/A 0.00 0.00
5:54 pm 17:54 undefined 82 27.8 72 22.2 72 72 undefined N/A 29.68 1005 N/A 0.00 0.00
6:54 pm 18:54 undefined 82 27.8 72 22.2 72 72 undefined N/A 29.69 1006 N/A 0.00 0.00
7:54 pm 19:54 undefined 82 27.8 72 22.2 72 72 undefined N/A 29.69 1005 N/A 0.00 0.00
8:54 pm 20:54 undefined 78 25.6 74 23.3 87 87 undefined N/A 29.68 1005 N/A 0.03 0.76
9:54 pm 21:54 undefined 77 25 74 23.3 90 90 undefined N/A 29.70 1006 N/A 0.09 2.29
10:54 pm 22:54 undefined 77 25 74 23.3 90 90 undefined N/A 29.70 1006 N/A 0.08 2.03
11:54 pm 23:54 undefined 77 25 74 23.3 90 90 undefined N/A 29.69 1006 N/A 0.00 0.00

Powered by AerisWeather